Flag for Germany Weather past 2 weeks in Burg, Saxony-Anhalt, Germany

Now
58 °F

Passing clouds.


Feels Like: 58 °F
Forecast: 48 / 68 °F
Wind: 2 mph from West

Location: Magdeburg

Current Time: Aug 21, 2014 at 12:10:26 PM

Latest Report: Aug 21, 2014 at 10:00 AM


Visibility: 13 mi

Pressure: 30.03 "Hg

Humidity: 71%

Dew point: 48 °F

Location of BurgLocation

Historic Weather in Burg — Graph

°F

Burg temperature yesterday

Maximum temperature yesterday: 66 °F (at 4:00 PM)
Minimum temperature yesterday: 49 °F (at 6:00 AM)
Average temperature yesterday: 57 °F

Past Weeks' High & Low Weather Summary

 TemperatureHumidityPressure
High83 °F (Aug 9, 1:00 PM)98% (Aug 8, 6:00 AM)30.09 "Hg (Aug 8, 6:00 AM)
Low47 °F (Aug 21, 4:00 AM)31% (Aug 6, 7:00 PM)29.62 "Hg (Aug 18, 3:00 PM)
Average63 °F70%29.86 "Hg
* Reported Aug 6 10:00 AM — Aug 21 10:00 AM, Burg, Weather by CustomWeather, © 2014

Note: Actual official high and low records may vary slightly from our data, if they occured in-between our weather recording intervals... More about our weather records

Advertising

Burg weather history for previous 24 hours

 ConditionsComfort  
Time TempWeatherWind HumidityBarometerVisibility
10:00 AM
Aug 21
58 °FPassing clouds.2 mph71%30.03 "Hg13 mi
9:00 AM56 °FScattered clouds.3 mph77%30.02 "Hg16 mi
8:00 AM53 °FOvercast.1 mph83%30.02 "Hg16 mi
7:00 AM51 °FOvercast.1 mph87%30.01 "Hg16 mi
6:00 AM50 °FOvercast.1 mph88%30.00 "Hg19 mi
5:00 AM48 °FOvercast.1 mph92%30.00 "Hg11 mi
4:00 AM47 °FPassing clouds.1 mph89%30.00 "Hg9 mi
3:00 AM50 °FPassing clouds.1 mph88%30.01 "Hg16 mi
2:00 AM50 °FPassing clouds.1 mph87%30.00 "Hg19 mi
1:00 AM52 °FPassing clouds.2 mph83%30.01 "Hg25 mi
12:00 AM53 °FOvercast.2 mph81%30.00 "Hg25 mi
10:00 PM
Aug 20
56 °FOvercast.1 mph68%30.00 "Hg43 mi
9:00 PM57 °FOvercast.3 mph60%30.00 "Hg43 mi
8:00 PM60 °FScattered clouds.2 mph61%29.98 "Hg43 mi
7:00 PM62 °FOvercast.2 mph56%29.97 "Hg43 mi
6:00 PM65 °FOvercast.3 mph46%29.97 "Hg40 mi
4:00 PM66 °FScattered clouds.6 mph40%29.96 "Hg37 mi
3:00 PM64 °FPartly sunny.6 mph49%29.97 "Hg37 mi
2:00 PM63 °FPartly sunny.6 mph53%29.98 "Hg37 mi
1:00 PM61 °FPartly sunny.5 mph56%29.98 "Hg37 mi
12:00 PM60 °FPartly sunny.6 mph62%29.98 "Hg37 mi
Weather by CustomWeather, © 2014

See weather overviewHow to use our weather pages